Weather History for Rochester, NY

Change the Weather History Date:

Wednesday, October 6, 2010

  Actual Average Record
Temperature  
Mean Temperature 56 °F 54 °F  
Max Temperature 61 °F 63 °F 87 °F (1900)
Min Temperature 51 °F 45 °F 27 °F (1958)
Degree Days  
Heating Degree Days 9 11  
Month to date heating degree days 79 63  
Since 1 July heating degree days 244 244  
Cooling Degree Days 0 0  
Month to date cooling degree days 0 0  
Year to date cooling degree days 732 534  
Growing Degree Days 5 (Base 50)    
Moisture  
Dew Point 52 °F    
Average Humidity 86    
Maximum Humidity 100    
Minimum Humidity 72    
Precipitation  
Precipitation 0.54 in 0.09 in 2.35 in (1955)
Month to date precipitation 1.59 0.55  
Year to date precipitation 30.11 26.53  
Snow  
Snow 0.00 in 0.00 in T in (1935)
Month to date snowfall 0.0 0.0  
Since 1 July snowfall 0.0 0.0  
Since 1 September snowfall 0.0 0.0  
Snow Depth 0.00 in    
Sea Level Pressure  
Sea Level Pressure 29.87 in    
Wind  
Wind Speed 5 mph (NNE)    
Max Wind Speed 16 mph    
Max Gust Speed 20 mph    
Visibility 9 miles    
Events Rain    
T = Trace of Precipitation, MM = Missing Value Source: NWS Daily Summary

Daily Weather History Graph

Daily Weather History Graph

Search for Another Location

Airport:

Trip Planner

Search our weather history database for the weather conditions in past years. The results will help you decide how hot, cold, wet, or windy it might be!

Date:

Astronomy

Oct. 06, 2010 Rise Set
Actual Time 7:13 AM EDT 6:43 PM EDT
Civil Twilight 6:45 AM EDT 7:11 PM EDT
Nautical Twilight 6:12 AM EDT 7:44 PM EDT
Astronomical Twilight 5:39 AM EDT 8:17 PM EDT
Moon 5:46 AM EDT (10/6) 5:45 PM EDT (10/6)
Length of Visible Light 12h 26m
Length of Day
11h 29m
Waning Crescent, 2% of the Moon is Illuminated
Oct 6
Waning Crescent
Oct 7
New
Oct 14
First Quarter
Oct 22
Full
Oct 30
Last Quarter

Hourly Weather History & Observations

Time (EDT) Temp. Dew Point Humidity Pressure Visibility Wind Dir Wind Speed Gust Speed Precip Events Conditions
12:19 AM 51.8 °F 48.2 °F 88% 30.04 in 5.0 mi North 8.1 mph - 0.01 in Rain Light Rain
12:54 AM 50.0 °F 48.9 °F 96% 30.04 in 7.0 mi North 4.6 mph - 0.02 in   Light Drizzle
1:54 AM 52.0 °F 51.1 °F 97% 30.02 in 8.0 mi Calm Calm - 0.00 in Rain Light Rain
2:54 AM 51.1 °F 51.1 °F 100% 30.01 in 7.0 mi Calm Calm - 0.02 in Rain Light Rain
3:54 AM 52.0 °F 51.1 °F 97% 29.99 in 5.0 mi ENE 4.6 mph - 0.01 in Rain Light Rain
4:54 AM 52.0 °F 50.0 °F 93% 29.98 in 10.0 mi Calm Calm - 0.05 in   Overcast
5:54 AM 52.0 °F 51.1 °F 97% 29.98 in 10.0 mi Calm Calm - 0.02 in Rain Light Rain
6:13 AM 51.8 °F 51.8 °F 100% 29.97 in 10.0 mi ENE 5.8 mph - 0.00 in   Light Drizzle
6:44 AM 51.8 °F 51.8 °F 100% 29.97 in 10.0 mi NE 5.8 mph - 0.00 in   Overcast
6:54 AM 53.1 °F 51.1 °F 93% 29.97 in 10.0 mi ENE 4.6 mph - 0.00 in   Overcast
7:19 AM 53.6 °F 51.8 °F 94% 29.97 in 10.0 mi Calm Calm - N/A   Overcast
7:54 AM 53.1 °F 51.1 °F 93% 29.97 in 10.0 mi Calm Calm - N/A   Overcast
8:54 AM 53.1 °F 51.1 °F 93% 29.97 in 7.0 mi ENE 4.6 mph - N/A   Overcast
9:54 AM 54.0 °F 52.0 °F 93% 29.96 in 8.0 mi ESE 3.5 mph - N/A   Overcast
10:54 AM 55.9 °F 52.0 °F 87% 29.95 in 10.0 mi ENE 3.5 mph - N/A   Overcast
11:54 AM 55.9 °F 53.1 °F 90% 29.94 in 9.0 mi East 3.5 mph - 0.04 in Rain Light Rain
12:24 PM 57.2 °F 53.6 °F 88% 29.93 in 10.0 mi ESE 3.5 mph - 0.00 in   Overcast
12:39 PM 57.2 °F 53.6 °F 88% 29.92 in 10.0 mi East 4.6 mph - 0.00 in   Overcast
12:54 PM 59.0 °F 54.0 °F 83% 29.91 in 10.0 mi Variable 4.6 mph - 0.00 in   Overcast
1:17 PM 60.8 °F 53.6 °F 77% 29.89 in 10.0 mi East 3.5 mph - N/A   Overcast
1:54 PM 60.1 °F 52.0 °F 75% 29.86 in 10.0 mi Calm Calm - N/A   Mostly Cloudy
2:54 PM 57.9 °F 53.1 °F 84% 29.83 in 10.0 mi NNE 12.7 mph - N/A   Overcast
3:54 PM 57.9 °F 52.0 °F 81% 29.81 in 10.0 mi NNE 8.1 mph - N/A   Overcast
4:25 PM 60.8 °F 53.6 °F 77% 29.79 in 10.0 mi NNE 10.4 mph - N/A   Mostly Cloudy
4:54 PM 57.9 °F 53.1 °F 84% 29.81 in 10.0 mi NE 15.0 mph - N/A   Mostly Cloudy
5:11 PM 57.2 °F 53.6 °F 88% 29.80 in 10.0 mi NE 13.8 mph - N/A   Mostly Cloudy
5:54 PM 57.9 °F 53.1 °F 84% 29.79 in 10.0 mi NE 9.2 mph - N/A   Mostly Cloudy
6:21 PM 57.2 °F 51.8 °F 82% 29.78 in 10.0 mi NNE 6.9 mph - N/A   Mostly Cloudy
6:44 PM 55.4 °F 51.8 °F 88% 29.78 in 10.0 mi NNE 5.8 mph - N/A   Mostly Cloudy
6:54 PM 55.9 °F 52.0 °F 87% 29.78 in 10.0 mi NNE 6.9 mph - N/A   Mostly Cloudy
7:19 PM 55.4 °F 51.8 °F 88% 29.78 in 10.0 mi NNE 5.8 mph - N/A   Mostly Cloudy
7:54 PM 54.0 °F 52.0 °F 93% 29.78 in 10.0 mi NNE 4.6 mph - N/A   Mostly Cloudy
8:54 PM 54.0 °F 53.1 °F 97% 29.79 in 10.0 mi WNW 5.8 mph - N/A   Overcast
9:09 PM 53.6 °F 53.6 °F 100% 29.78 in 10.0 mi WNW 5.8 mph - N/A   Overcast
9:48 PM 53.6 °F 53.6 °F 100% 29.76 in 2.5 mi WNW 9.2 mph - 0.07 in Rain Heavy Rain
9:54 PM 54.0 °F 53.1 °F 97% 29.77 in 3.0 mi WNW 8.1 mph - 0.10 in Rain Heavy Rain
10:06 PM 53.6 °F 53.6 °F 100% 29.76 in 8.0 mi NW 6.9 mph - 0.01 in Rain Light Rain
10:38 PM 53.6 °F 51.8 °F 94% 29.75 in 10.0 mi WNW 9.2 mph - 0.04 in Rain Light Rain
10:54 PM 53.1 °F 52.0 °F 96% 29.74 in 8.0 mi WNW 8.1 mph - 0.05 in Rain Light Rain
11:09 PM 53.6 °F 51.8 °F 94% 29.74 in 6.0 mi WNW 6.9 mph - 0.02 in Rain Rain
11:54 PM 53.1 °F 52.0 °F 96% 29.73 in 3.0 mi West 4.6 mph - 0.10 in Rain Rain